OpenBCM V1.13 (Linux)

Packet Radio Mailbox

DB0FHN

[JN59NK Nuernberg]

 Login: GUEST





  
LU9DCE > KEP      20.03.19 19:34l 254 Lines 12421 Bytes #999 (0) @ WW
BID : 20314_LU9DCE
Read: DF7EAV GUEST DK3UZ
Subj: TLE 20 03
Path: DB0FHN<DB0BLO<DB0ERF<DB0RES<DB0OVN<DB0GOS<ON0AR<GB7CIP<GB7YEW<LU9DCE
Sent: 190320/1801Z 20314@LU9DCE.TOR.BA.ARG.SOAM LinBPQ6.0.18

            __    _  _  ___  ____   ___  ____    ____  ____  ____
           (  )  / )( \/ _ \(    \ / __)(  __)  (  _ \(  _ \/ ___)
           / (_/\) \/ (\__  )) D (( (__  ) _)    ) _ ( ) _ (\___ \
           \____/\____/(___/(____/ \___)(____)  (____/(____/(____/
               ESTACION DE PACKET RADIO - BUENOS AIRES (GF05OM)
                   BOLETINES INFORMATIVOS PROGRAMADOS (BIP)
                  SOPORTE TECNICO - HELLOCODELINUX@GMAIL.COM

+----------------------------------------------------------------------------+
OSCAR 7
1  7530U 74089B   19078.43216767 -.00000041 +00000-0 +26639-4 0  9990
2  7530 101.7331 047.0696 0012175 161.6990 350.4471 12.53637273028848
OSCAR 11 (UoSAT 2)
1 14781U 84021B   19078.54991749 +.00000059 +00000-0 +13368-4 0  9998
2 14781 097.6207 107.5327 0007014 256.4538 103.5895 14.83070238885259
OSCAR 19 (LUSAT)
1 20442U 90005G   19078.26522789 -.00000013 +00000-0 +11660-4 0  9995
2 20442 098.6402 020.4623 0012809 061.5782 298.6691 14.32919660523281
EYESAT A
1 22825U 93061C   19078.40307125 -.00000002 +00000-0 +17137-4 0  9991
2 22825 098.8972 064.9870 0007325 264.5189 095.5157 14.30053613328630
ITAMSAT
1 22826U 93061D   19078.42599062 +.00000002 +00000-0 +18788-4 0  9999
2 22826 098.8912 065.0133 0007884 252.0992 107.9330 14.30386710328855
RADIO ROSTO
1 23439U 94085A   19078.72246831 -.00000039 +00000-0 +10927-3 0  9990
2 23439 064.8140 263.2349 0148342 130.6625 333.9012 11.27568316997635
JAS 2
1 24278U 96046B   19078.59955835 +.00000001 +00000-0 +33783-4 0  9991
2 24278 098.5232 244.4291 0351311 116.2310 247.5386 13.53089856115233
TECHSAT 1B
1 25397U 98043D   19078.46499653 -.00000022 +00000-0 +93811-5 0  9993
2 25397 098.6808 019.7561 0000734 004.1147 356.0038 14.23661896074672
ISS (ZARYA)
1 25544U 98067A   19079.54079067  .00002251  00000-0  43105-4 0  9991
2 25544  51.6415  81.9177 0003837 120.5763  25.3799 15.52834200161487
PCSAT
1 26931U 01043C   19078.47200639 -.00000052 +00000-0 +11930-4 0  9991
2 26931 067.0500 239.0680 0005431 275.0004 085.0477 14.30535508911927
SAUDISAT 1C
1 27607U 02058C   19078.65997201 -.00000011 +00000-0 +19380-4 0  9999
2 27607 064.5557 327.9113 0082347 273.8618 085.3072 14.75527954873474
CUTE-1
1 27844U 03031E   19078.47331210 +.00000052 +00000-0 +43158-4 0  9990
2 27844 098.6869 088.0395 0008765 298.3243 061.7050 14.22165357815282
CUBESAT XI 4
1 27848U 03031J   19078.50991496 +.00000036 +00000-0 +36446-4 0  9990
2 27848 098.6948 088.5546 0008784 310.6345 049.4068 14.21762231815150
MOZHAYETS 4
1 27939U 03042A   19079.40271420  .00000053  00000-0  18034-4 0  9993
2 27939  98.0225 217.0575 0012806   0.2991  84.1787 14.66761417827301
CUBESAT XI 5
1 28895U 05043F   19078.38034431 +.00000118 +00000-0 +31583-4 0  9999
2 28895 097.9434 224.3190 0015437 280.5010 079.4453 14.63639329714120
CUTE-1.7+APD II
1 32785U 08021C   19078.71938837 +.00000200 +00000-0 +27254-4 0  9993
2 32785 097.5492 082.7310 0012534 198.2007 161.8763 14.88264615590085
DELFI C3
1 32789U 08021G   19078.57572979 +.00001088 +00000-0 +77179-4 0  9998
2 32789 097.4759 130.9482 0013845 079.8149 280.4639 15.06724496593146
SEEDS
1 32791U 08021J   19078.68895409 +.00000322 +00000-0 +38071-4 0  9997
2 32791 097.5303 088.5691 0013489 174.3273 185.8101 14.90754960590474
YUBELEINY
1 32953U 08025A   19078.69763037  .00000020  00000-0  75656-4 0  9998
2 32953  82.5058 201.3354 0018358 330.8369  29.1685 12.43088138491000
PRISM (HITOMI)
1 33493U 09002B   19078.73398895  .00000401  00000-0  40800-4 0  9991
2 33493  98.1234 356.2451 0016326 120.5951 239.6882 14.96548822551545
KKS-1 (KISEKI)
1 33499U 09002H   19078.66365086 +.00000103 +00000-0 +23311-4 0  9992
2 33499 098.3549 274.4348 0010139 131.3401 228.8681 14.75415023545378
SWISSCUBE
1 35932U 09051B   19078.69520695  .00000110  00000-0  35880-4 0  9994
2 35932  98.5764 242.0550 0008801  86.8382 273.3822 14.56253904503535
BEESAT
1 35933U 09051C   19078.42904363 +.00000098 +00000-0 +33101-4 0  9993
2 35933 098.5797 243.4932 0007033 098.9208 261.2785 14.56346898503605
ITUPSAT 1
1 35935U 09051E   19078.43423587 +.00000078 +00000-0 +29079-4 0  9997
2 35935 098.5909 243.7423 0009338 095.8696 264.3565 14.55511040503362
XIWANG-1 (HOPE-1)
1 36122U 09072B   19078.75810111 -.00000021  00000-0  54233-4 0  9996
2 36122 100.0745  85.4149 0007326 189.4035 170.6941 13.16348743444912
TISAT 1
1 36799U 10035E   19078.34961340 +.00000476 +00000-0 +54184-4 0  9991
2 36799 098.1412 227.5484 0012809 031.5979 328.6005 14.91028781470957
JUGNU
1 37839U 11058B   19078.63120921 +.00000337 +00000-0 +37974-4 0  9991
2 37839 019.9603 166.9747 0019112 043.4602 102.2855 14.12644645384255
SRMSAT
1 37841U 11058D   19078.76044122 +.00000300 +00000-0 +19794-4 0  9996
2 37841 019.9711 221.0871 0011761 278.3400 220.3066 14.10626757383747
M-CUBED/EXP-1 PRIME
1 37855U 11061F   19078.40548575 +.00000864 +00000-0 +51443-4 0  9999
2 37855 101.7271 287.0896 0174310 347.3556 012.3311 15.05200956402570
HORYU 2
1 38340U 12025D   19078.03866013 +.00000187 +00000-0 +35453-4 0  9990
2 38340 098.3406 113.8251 0012585 060.3380 299.9080 14.75679953357235
STRAND 1
1 39090U 13009E   19078.51927726 +.00000037 +00000-0 +28092-4 0  9993
2 39090 098.4976 285.9561 0008809 193.0289 167.0670 14.35074327317317
SOMP
1 39134U 13015E   19078.63210351 +.00001244 +00000-0 +66786-4 0  9994
2 39134 064.8636 315.3989 0022081 316.7192 043.2200 15.19907430326376
BEESAT 3
1 39135U 13015F   19078.65748910 +.00000760 +00000-0 +47807-4 0  9999
2 39135 064.8694 332.3622 0009919 297.3571 062.6545 15.17266802326044
BEESAT 2
1 39136U 13015G   19078.66086234 +.00000826 +00000-0 +51845-4 0  9995
2 39136 064.8711 335.8953 0011441 294.8443 065.1492 15.16710762325971
CUBEBUG 1
1 39153U 13018D   19078.52526594 +.00000204 +00000-0 +33543-4 0  9995
2 39153 097.9744 177.1932 0018095 131.3891 228.8880 14.80526596318332
ZACUBE
1 39417U 13066B   19078.70262010 +.00000219 +00000-0 +33942-4 0  9990
2 39417 097.5685 097.2911 0058215 333.6854 026.1404 14.81070328287578
TRITON 1
1 39427U 13066M   19078.38099840 +.00000216 +00000-0 +41981-4 0  9993
2 39427 097.6678 061.4493 0115386 097.7506 263.6819 14.67793108284752
GOMX 1
1 39430U 13066Q   19078.83551691  .00000135  00000-0  33474-4 0  9992
2 39430  97.7347  41.4337 0151211 180.2115 179.9052 14.59207930283353
HUMSAT D
1 39433U 13066T   19078.41343719 +.00000583 +00000-0 +62306-4 0  9992
2 39433 097.5662 129.5932 0029475 243.7190 116.1000 14.92107187289461
CUBEBUG 2
1 39440U 13066AA  19077.95009478 +.00000255 +00000-0 +42367-4 0  9990
2 39440 097.6015 081.8101 0080940 024.0658 336.4301 14.75807833286445
FUNCUBE 1
1 39444U 13066AE  19078.48301818 +.00000273 +00000-0 +40053-4 0  9996
2 39444 097.5674 098.9366 0057199 328.6269 031.1537 14.81879417286424
UWE-3
1 39446U 13066AG  19078.44971003 +.00000234 +00000-0 +37803-4 0  9999
2 39446 097.5838 089.1809 0070000 359.1132 000.9944 14.78343188285192
SPROUT
1 39770U 14029E   19078.60424442  .00000770  00000-0  91579-4 0  9992
2 39770  97.8794 182.5399 0010132  32.0775 328.1057 14.87217493261292
UNISAT 6
1 40012U 14033C   19078.57298585 +.00000171 +00000-0 +32894-4 0  9991
2 40012 097.7715 309.0347 0059222 032.9675 327.5204 14.73938682255267
DUCHIFAT 1
1 40021U 14033M   19078.71879705 +.00000446 +00000-0 +51470-4 0  9992
2 40021 097.9225 003.0277 0012929 357.0254 003.0885 14.90549396257997
QB50P1
1 40025U 14033R   19078.70562540 +.00000289 +00000-0 +36765-4 0  9996
2 40025 097.9066 358.5383 0012631 005.7948 354.3413 14.88885104257274
CHUBUSAT 1
1 40300U 14070C   19078.87141505  .00000561  00000-0  27508-4 0  9993
2 40300  97.3350 155.3241 0021301  18.4732  93.1739 15.21952591242201
NUDT-PHONESAT
1 40900U 15049B   19078.93913916 +.00002369 +00000-0 +10539-3 0  9999
2 40900 097.4402 089.1801 0014273 136.8203 253.5548 15.22392011193852
ZDPS 2A
1 40901U 15049C   19078.82602145  .00000953  00000-0  50745-4 0  9998
2 40901  97.4616  85.9710 0014364 151.9280 331.6705 15.17556166193453
ZDPS 2B
1 40902U 15049D   19078.83818466  .00000707  00000-0  38735-4 0  9997
2 40902  97.4545  83.6021 0014536 149.7643 331.1705 15.17328749193431
XW-2A
1 40903U 15049E   19078.77877802  .00002452  00000-0  60373-4 0  9992
2 40903  97.3510 120.9854 0015617 111.3197 339.6887 15.41482812196247
KAITUO 1A
1 40904U 15049F   19078.80935565  .00000687  00000-0  39959-4 0  9992
2 40904  97.4666  82.3846 0015225 156.3327 328.2035 15.15274733193239
OBJECT G
1 40905U 15049G   19078.75786175  .00000285  00000-0  19164-4 0  9998
2 40905  97.4690  80.0000 0016427 151.2149 324.1544 15.14205877193114
XW-2C
1 40906U 15049H   19078.94253704 +.00000623 +00000-0 +36272-4 0  9992
2 40906 097.4670 082.5367 0015773 147.7253 241.8078 15.15545876193254
XW-2D
1 40907U 15049J   19078.88101948  .00000857  00000-0  48322-4 0  9996
2 40907  97.4647  82.1546 0015103 144.9893 331.5026 15.15725186193254
LILACSAT 2
1 40908U 15049K   19078.77480876  .00000059  00000-0  68978-5 0  9999
2 40908  97.4774  81.0366 0016692 151.0997 331.8103 15.13722259193055
XW-2F
1 40910U 15049M   19078.86146043 +.00001184 +00000-0 +62972-4 0  9994
2 40910 097.4625 083.9493 0015925 139.8630 340.5503 15.17091999193247
XW-2B
1 40911U 15049N   19078.84455765  .00000511  00000-0  30305-4 0  9995
2 40911  97.4677  82.7445 0015130 146.4048 335.3885 15.15656577193145
KAITUO 1B
1 40912U 15049P   19078.83253747  .00001235  00000-0  61448-4 0  9997
2 40912  97.4515  87.3724 0016604 125.3219 357.1854 15.19376368193511
TIANWANG 1C (TW-1C)
1 40926U 15051B   19078.90649395  .00013686  00000-0  21493-3 0  9999
2 40926  97.1492 125.2626 0008717   2.6659 122.8267 15.53725595196056
